北斗三号 M11 (BEIDOU 3M11)

导读

BEIDOU-3 M12 是中国北斗三号卫星导航系统中的重要组成部分,属于中圆地球轨道(MEO)卫星。该卫星于2020年前后发射,主要用于提供全球范围内的高精度定位、导航和授时服务。北斗三号系统由多颗地球静止轨道(GEO)、倾斜地球同步轨道(IGSO)和中圆轨道(MEO)卫星组成,M12 卫星在其中承担关键的信号传输与数据校准功能,提升了系统的稳定性和覆盖能力,增强了中国在全球卫星导航领域的自主权和影响力。

基本信息
目录编号:
43602
目录名称:
BEIDOU 3M11
国际标识:
2018-067A
轨道中心:
EARTH
卫星名称:
北斗三号 M11
卫星全名:
北斗三号 M11 (BEIDOU 3M11)
卫星状态:
在轨 (已飞行2942 天)
发射日期:
2018-08-24 UTC
国别 :
中国 (CN)
星等 :
--
该卫星已列入 空间交会检测服务 Space Conjunction Data Service (SCDS) ,当前飞行风险评估等级: 无高风险
轨道信息
数据来源 国际轨道数据 AOE轨道数据
星历时间 2026-09-12T18:23:56+0800
18小时前
查看轨道信息
2026-09-06T14:00:00+0800
6天前
查看轨道信息
半长轴 27906.549km 27906.619km
偏心率 0.0008739 0.0008652
轨道倾角 54.178° 54.179°
近地点辐角 36.194° 34.941°
升交点赤经 178.083° 178.293°
平近点角 323.872° 139.592°
近地点 21504.024km 21504.337km
远地点 21552.8km 21552.627km
周期 773.248分钟 773.251分钟
每日圈数 1.862274 1.862267
详细信息
平衡模式:
三轴稳定
制造商(研发单位):
中国科学院
制造商所在国:
中国
使用方式:
暂无
工作目标:
为全球用户提供连续、稳定、可靠的北斗导航、定位服务
预期寿命:
12年
卫星简介
北斗卫星导航系统是中国着眼于国家安全和经济社会发展需要,自主建设运行的全球卫星导航系统,是为全球用户提供全天候、全天时、高精度的定位、导航和授时服务的国家重要时空基础设施。该卫星仍在工作。
2D轨道图
3D轨道图
轨道高度分析图
轨道倾角分析图
轨道综合分析图
查看轨道综合分析图
与全量物体交会距离演化趋势
与全量物体交会风险概率演化趋势